Tracking 19246 objects as of 19-Aug-2018
HD Live streaming from Space Station
objects crossing your sky now

THOR 3

Track THOR 3 now!
THOR 3 is classified as:


NORAD ID: 25358
Int'l Code: 1998-035A
Perigee: 35,785.1 km
Apogee: 35,802.6 km
Inclination: 6.1 °
Period: 1,436.1 minutes
Semi major axis: 42164 km
RCS: 23.5207 m2 (large)
Launch date: June 10, 1998
Source: Norway (NOR)
Launch site: AIR FORCE EASTERN TEST RANGE (AFETR)

14 Ku-band; Nordic region, central and eastern Europe.
aabbcc
Your satellite tracking list
Your tracking list is empty




NASA's NSSDC Master Catalog

Two Line Element Set (TLE):
1 25358U 98035A   18230.26282065 -.00000065 +00000-0 +00000-0 0  9995
2 25358 006.1399 056.7286 0002070 093.1282 267.0439 01.00271459074170
Source of the keplerian elements: AFSPC